Location: Wald
(31.7579°N, 86.6655°W)
Time: 21:00:39
(UTC+00:00)

Cosmos 1980 - Pass Details

Date: 14 July 2020
Orbit: 839 x 847 km, 71.0° (Epoch: 13 August)

Event Time Altitude Azimuth Distance (km) Brightness Sun altitude
Rises 02:39:11 0° 212° (SSW) 3,376 6.7 -19.4°
Reaches altitude 10° 02:41:41 10° 217° (SW) 2,445 6.0 -19.7°
Maximum altitude 02:47:08 52° 293° (WNW) 1,033 4.5 -20.6°
Drops below altitude 10° 02:52:38 10° 9° (N) 2,458 6.6 -21.4°
Sets 02:55:09 0° 15° (NNE) 3,396 7.3 -21.8°
